Location: Charbonni�res
(45.9952°N, 2.9982°E)
Time: 17:44:13
(UTC+00:00)

SMAP - Pass Details

Date: 29 November 2020
Orbit: 681 x 683 km, 98.1° (Epoch: 22 January)

Event Time Altitude Azimuth Distance (km) Brightness Sun altitude
Rises 06:18:46 0° 12° (NNE) 3,059 6.3 -8.4°
Reaches altitude 10° 06:21:01 10° 12° (NNE) 2,138 5.5 -8.0°
Maximum altitude 06:25:42 82° 286° (WNW) 696 3.0 -7.3°
Drops below altitude 10° 06:30:21 10° 199° (SSW) 2,120 5.7 -6.5°
Sets 06:32:34 0° 198° (SSW) 3,030 6.5 -6.2°
